Regional Weather Roundup
Issued by NWS

Home | Current Version | Previous Version | Graphics & Text | Print | Product List | Glossary On
Versions: 1 2 3 4 5 6 7 8 9 10 11 12 13 14 15 16 17 18 19 20 21 22 23 24 25 26 27
000
ASUS45 KSLC 310510
RWRUT

UTAH REGIONAL WEATHER ROUNDUP
NATIONAL WEATHER SERVICE SALT LAKE CITY UT
1100 PM MDT THU OCT 30 2014

UTZ001>011-023>025-310600-

NORTHERN UTAH

CITY           SKY/WX    TMP DP  RH WIND       PRES   REMARKS
BRIGHAM CITY   MOCLDY    47  36  66 CALM      30.10S
HILL AFB       MOCLDY    56  32  40 SE10      30.11S
LOGAN          CLEAR     42  34  73 CALM      30.10F
OGDEN          MOCLDY    57  32  38 SE9       30.09S
PROVO AIRPORT  PTCLDY    45  37  76 NE5       30.14S
SALT LAKE CITY MOCLDY    51  36  56 S12       30.10S
VERNAL         MOCLDY    42  27  55 W6        30.26S
WENDOVER       MOCLDY    45  27  49 CALM      30.10S
HEBER CITY     PTCLDY    37  27  65 S3        30.21S
WEST JORDAN    CLEAR     52  36  54 S6        30.12F

$$

UTZ012>022-026-027-310600-

SOUTHERN/CENTRAL UTAH

CITY           SKY/WX    TMP DP  RH WIND       PRES   REMARKS
BLANDING       PTCLDY    49  20  32 N10       30.33S
BRYCE CANYON   MOCLDY    30  17  58 SW6       30.33S WCI  24
CEDAR CITY     MOCLDY    50  16  25 SE5       30.16R
DELTA          CLOUDY    48  24  38 S9        30.12S
HANKSVILLE       N/A     45  18  33 CALM      30.23S
MILFORD        MOCLDY    51  23  33 CALM      30.12F
MOAB/CYNLANDS  CLEAR     43  20  39 SW8       30.20R
PRICE          PTCLDY    45  18  34 N9        30.26S
ST GEORGE      PTCLDY    66  23  19 E6        30.06S
KANAB            N/A     55  19  24 N8        30.22R

$$

REGIONAL REPORTS     COLORADO/ARIZONA

CITY           SKY/WX    TMP DP  RH WIND       PRES   REMARKS
CRAIG, CO      CLEAR     32  27  81 CALM      30.32S
GRAND JUNCTION CLEAR     47  25  42 SE7       30.22S
RIFLE          CLEAR     42  26  53 CALM      30.29S
MONTROSE       CLEAR     44  25  47 SE13      30.30F
CORTEZ         CLEAR     37  23  56 CALM      30.30S
PAGE, AZ       MOCLDY    59  20  22 SE3       30.17S
GRAND CANYON   PTCLDY    37  17  44 CALM      30.29R
KINGMAN        MOCLDY    59  32  36 W7        30.07S
FLAGSTAFF      PTCLDY    38  23  55 CALM      30.32R

$$

REGIONAL REPORTS    NEVADA/IDAHO/WYOMING

CITY           SKY/WX    TMP DP  RH WIND       PRES   REMARKS
LAS VEGAS, NV  MOCLDY    72  27  18 SW5       29.94S
ELY            MOCLDY    50  21  32 S12       30.14F
ELKO           MOCLDY    49  22  34 NE6       30.02F
POCATELLO, ID  CLEAR     42  31  64 CALM      30.09S
BURLEY         MOCLDY    45  32  60 NE3       30.03S
EVANSTON, WY   MOCLDY    48  24  39 E7        30.26S
ROCK SPRINGS   MOCLDY    46  26  45 SE10      30.28F
KEMMERER       CLOUDY    46  27  46 NE7       30.28S

$$



USA.gov is the U.S. government's official web portal to all federal, state and local government web resources and services.